TimeCDT,TemperatureF,Dew PointF,Humidity,Sea Level PressureIn,VisibilityMPH,Wind Direction,Wind SpeedMPH,Gust SpeedMPH,PrecipitationIn,Events,Conditions,WindDirDegrees,DateUTC
12:58 AM,63.9,58.1,81,29.98,10.0,SSE,11.5,-,N/A,,Clear,160,2014-04-12 05:58:00
1:58 AM,61.5,58.1,89,29.97,10.0,SSE,6.9,-,N/A,,Clear,150,2014-04-12 06:58:00
2:58 AM,60.4,58.1,92,29.96,10.0,SSE,8.1,-,N/A,,Clear,150,2014-04-12 07:58:00
3:58 AM,60.6,57.4,89,29.95,10.0,South,6.9,-,N/A,,Clear,170,2014-04-12 08:58:00
4:58 AM,59.5,57.6,93,29.93,10.0,SSE,6.9,-,N/A,,Clear,160,2014-04-12 09:58:00
5:58 AM,60.4,57.4,90,29.92,10.0,South,8.1,-,N/A,,Clear,170,2014-04-12 10:58:00
6:58 AM,60.1,57.2,90,29.92,10.0,SSE,8.1,-,N/A,,Clear,160,2014-04-12 11:58:00
7:58 AM,64.8,57.6,77,29.92,8.0,South,10.4,18.4,N/A,,Clear,180,2014-04-12 12:58:00
8:58 AM,68.2,57.9,70,29.92,10.0,South,12.7,23.0,N/A,,Scattered Clouds,180,2014-04-12 13:58:00
9:58 AM,71.6,58.6,64,29.91,10.0,South,11.5,23.0,N/A,,Clear,190,2014-04-12 14:58:00
10:58 AM,75.0,58.3,56,29.89,10.0,South,15.0,23.0,N/A,,Partly Cloudy,170,2014-04-12 15:58:00
11:58 AM,76.5,57.9,53,29.88,10.0,SSE,17.3,25.3,N/A,,Clear,160,2014-04-12 16:58:00
12:37 PM,78.8,57.2,47,29.86,10.0,SSE,16.1,24.2,N/A,,Partly Cloudy,160,2014-04-12 17:37:00
12:58 PM,78.8,57.2,47,29.83,10.0,South,10.4,24.2,N/A,,Clear,190,2014-04-12 17:58:00
1:58 PM,80.8,57.7,45,29.81,10.0,South,19.6,31.1,N/A,,Clear,180,2014-04-12 18:58:00
2:58 PM,79.0,58.8,50,29.79,10.0,South,12.7,26.5,N/A,,Partly Cloudy,190,2014-04-12 19:58:00
3:58 PM,77.7,59.2,53,29.75,10.0,SSE,18.4,27.6,N/A,,Partly Cloudy,160,2014-04-12 20:58:00
4:58 PM,76.3,58.6,54,29.74,10.0,South,15.0,28.8,N/A,,Partly Cloudy,170,2014-04-12 21:58:00
5:58 PM,75.2,57.2,53,29.73,10.0,South,16.1,29.9,N/A,,Clear,170,2014-04-12 22:58:00
6:58 PM,74.1,54.1,50,29.73,10.0,South,12.7,24.2,N/A,,Partly Cloudy,180,2014-04-12 23:58:00
7:58 PM,72.1,54.0,53,29.73,10.0,South,11.5,21.9,N/A,,Mostly Cloudy,170,2014-04-13 00:58:00
8:58 PM,70.5,53.6,55,29.73,10.0,South,16.1,23.0,N/A,,Partly Cloudy,170,2014-04-13 01:58:00
9:58 PM,68.4,55.2,63,29.73,10.0,South,12.7,21.9,N/A,,Clear,170,2014-04-13 02:58:00
10:58 PM,66.9,56.3,69,29.73,10.0,South,10.4,21.9,N/A,,Clear,180,2014-04-13 03:58:00
11:58 PM,66.4,57.0,72,29.73,10.0,South,13.8,24.2,N/A,,Clear,180,2014-04-13 04:58:00